SL-16 DEB, 22361

Orbit data source: Space-Track

SL-16 DEB, 22361 is space debris in LEO originally from a launch on Fri, 25 Dec 1992 UTC launched from the Tyuratam Missile And Space Complex (TTMTR). Debris objects in space refer to the collection of defunct objects orbiting the Earth. Examples of debris include non-operational satellites, rocket bodies, and fragments generated from explosions, collisions, or faulty payload assembly.

Loading next visibility...
Identifier
22361, 1992-093BA
Orbit
LEO
Country
Flag of CISCIS
Related business
Manufacturer
Unknown
Mission
Spacecraft
Bus & Motor
Unknown
Mass
Unknown
Launch date (UTC)
1992-12-25 (33 years ago)
Launch vehicle
Unknown
Launch site
Tyuratam Missile And Space Complex (TTMTR)
Object type
Payload
Rocket body
Debris
Shape & HBR
Unknown shape, 0.3 m
Radar Cross Section
Medium (>0.1 m² and <1 m²)

Expand to show TLE details & history
Last TLE update: 12 hours ago

TLE from 12 hours ago
0 SL-16 DEB
1 22361U 92093BA  26037.07981661  .00000561  00000-0  50239-3 0  9997
2 22361  70.7648 179.6296 0182422 125.0375 349.7467 13.81341648664623
Epoch: 2026-02-06T01:54Z
TLE epoch observation values (Epoch: 2026-02-06T01:54:56.155Z)
Latitude
59.40709°
Longitude
158.7259°
Altitude
837 km
Speed
7.507 km/s
True Right ascension
21h 34m 43s
True Declination
59° 15' 28"
Sunlit
Object was in daylight at epoch
Visualization orbit readout
Latitude
Unknown
Longitude
Unknown
Altitude
Unknown
Speed
Unknown
Apparent Right ascension
Unknown
Apparent Declination
Unknown
Sunlit
N/A
Visualization observer readout
Local Sidereal Time
15:52:40
Azimuth
Unknown
Elevation
Unknown
Doppler factor
Unknown
Orbital elements
Apogee altitude
1,090.923 km
Perigee altitude
823.301 km
Semi-major axis
7,335.249 km
Eccentricity
0.01824
Inclination
70.7648°
RAAN
179.6296°
Arg. of periapsis
125.0375°
True anomaly
349.36608°
Mean anomaly
349.7467°
Eccentric anomaly
349.55725°
Mean motion
3.45478 °/min
Orbital period
104.2 mins
BSTAR
0.00050239
Loading maneuver chart data...
Computing Atmospheric mass density...

Documentation

Showing up to 5 results
|